• In Belarus
  • List of Countries
  • For 7 days
  • Water Temperature
  • Weather Map
  • Weather Widgets
  • user-avatar
    Login

    Hourly Weather Tlyarata

    Today, 31 March, Tuesday

    Time Temperature Precipitation Wind Pressure Humidity
    00:00 +2°C° 0 mm 2 mps 629 mmHg 92%
    01:00 +2°C° 0 mm 2 mps 629 mmHg 91%
    02:00 +1°C° 0 mm 2 mps 630 mmHg 91%
    03:00 +1°C° 0 mm 2 mps 630 mmHg 89%
    04:00 -1°C° 0 mm 2 mps 630 mmHg 88%
    05:00 -1°C° 0 mm 2 mps 630 mmHg 86%
    06:00 -1°C° 0 mm 2 mps 630 mmHg 85%
    07:00 +2°C° 0 mm 2 mps 631 mmHg 82%
    08:00 +5°C° 0 mm 1 mps 632 mmHg 79%
    09:00 +7°C° 0 mm 1 mps 633 mmHg 76%
    10:00 +8°C° 0.1 mm 1 mps 634 mmHg 79%
    11:00 +8°C° 0.1 mm 1 mps 634 mmHg 83%
    12:00 +8°C° 0.1 mm 1 mps 634 mmHg 86%
    13:00 +8°C° 0.4 mm 1 mps 634 mmHg 88%
    14:00 +7°C° 0.4 mm 2 mps 634 mmHg 89%
    15:00 +7°C° 0.4 mm 2 mps 634 mmHg 91%
    16:00 +7°C° 0.7 mm 1 mps 633 mmHg 92%
    17:00 +6°C° 0.7 mm 1 mps 633 mmHg 93%
    18:00 +5°C° 0.7 mm 1 mps 633 mmHg 93%
    19:00 +5°C° 0.2 mm 1 mps 633 mmHg 93%
    20:00 +4°C° 0.2 mm 1 mps 634 mmHg 92%
    21:00 +4°C° 0.2 mm 1 mps 634 mmHg 91%
    22:00 +2°C° 0 mm 2 mps 634 mmHg 92%
    23:00 +2°C° 0 mm 2 mps 634 mmHg 93%

    Tomorrow, 1 April, Wednesday

    Time Temperature Precipitation Wind Pressure Humidity
    00:00 +1°C° 0 mm 2 mps 634 mmHg 93%
    01:00 +1°C° 0 mm 2 mps 634 mmHg 93%
    02:00 +1°C° 0 mm 2 mps 634 mmHg 92%
    03:00 -1°C° 0 mm 2 mps 633 mmHg 91%
    04:00 -1°C° 0 mm 2 mps 634 mmHg 92%
    05:00 -1°C° 0 mm 2 mps 634 mmHg 92%
    06:00 -1°C° 0 mm 2 mps 634 mmHg 92%
    07:00 +2°C° 0 mm 2 mps 634 mmHg 89%
    08:00 +4°C° 0 mm 2 mps 635 mmHg 86%
    09:00 +5°C° 0 mm 3 mps 635 mmHg 83%
    10:00 +5°C° 0.1 mm 3 mps 635 mmHg 83%
    11:00 +7°C° 0.1 mm 3 mps 635 mmHg 83%
    12:00 +7°C° 0.1 mm 3 mps 635 mmHg 83%
    13:00 +7°C° 0.1 mm 3 mps 634 mmHg 82%
    14:00 +7°C° 0.1 mm 3 mps 634 mmHg 82%
    15:00 +7°C° 0.1 mm 3 mps 634 mmHg 81%
    16:00 +6°C° 0 mm 2 mps 633 mmHg 84%
    17:00 +5°C° 0 mm 2 mps 633 mmHg 86%
    18:00 +4°C° 0 mm 2 mps 632 mmHg 89%
    19:00 +4°C° 0 mm 2 mps 632 mmHg 90%
    20:00 +4°C° 0 mm 1 mps 632 mmHg 91%
    21:00 +4°C° 0 mm 1 mps 632 mmHg 92%
    22:00 +4°C° 0.6 mm 1 mps 632 mmHg 92%
    23:00 +4°C° 0.6 mm 1 mps 632 mmHg 93%

    Day after tomorrow, 2 April, Thursday

    Time Temperature Precipitation Wind Pressure Humidity
    00:00 +4°C° 0.6 mm 1 mps 632 mmHg 94%
    01:00 +4°C° 1.4 mm 1 mps 632 mmHg 94%
    02:00 +4°C° 1.4 mm 0 mps 632 mmHg 95%
    03:00 +4°C° 1.4 mm 0 mps 632 mmHg 96%
    04:00 +4°C° 1.3 mm 0 mps 632 mmHg 96%
    05:00 +4°C° 1.3 mm 0 mps 632 mmHg 96%
    06:00 +4°C° 1.3 mm 0 mps 632 mmHg 97%
    07:00 +4°C° 0.4 mm 0 mps 633 mmHg 96%
    08:00 +6°C° 0.4 mm 1 mps 633 mmHg 96%
    09:00 +7°C° 0.4 mm 1 mps 634 mmHg 96%
    10:00 +7°C° 0.4 mm 1 mps 634 mmHg 96%
    11:00 +7°C° 0.4 mm 1 mps 634 mmHg 96%
    12:00 +7°C° 0.4 mm 2 mps 635 mmHg 95%
    13:00 +7°C° 0.6 mm 2 mps 635 mmHg 95%
    14:00 +7°C° 0.6 mm 1 mps 634 mmHg 95%
    15:00 +7°C° 0.6 mm 1 mps 634 mmHg 95%
    16:00 +7°C° 0.2 mm 1 mps 634 mmHg 94%
    17:00 +6°C° 0.2 mm 1 mps 634 mmHg 94%
    18:00 +5°C° 0.2 mm 1 mps 635 mmHg 94%
    19:00 +5°C° 0 mm 1 mps 635 mmHg 93%
    20:00 +4°C° 0 mm 1 mps 635 mmHg 93%
    21:00 +2°C° 0 mm 2 mps 635 mmHg 92%
    22:00 +2°C° 0 mm 2 mps 635 mmHg 93%
    23:00 +2°C° 0 mm 2 mps 635 mmHg 93%

    3 April, Friday

    Time Temperature Precipitation Wind Pressure Humidity
    00:00 +1°C° 0 mm 3 mps 635 mmHg 93%
    01:00 +3°C° 0.2 mm 2 mps 635 mmHg 94%
    02:00 +3°C° 0.2 mm 2 mps 635 mmHg 95%
    03:00 +3°C° 0.2 mm 2 mps 635 mmHg 95%
    04:00 +3°C° 0.5 mm 2 mps 635 mmHg 96%
    05:00 +2°C° 0.5 mm 3 mps 635 mmHg 96%
    06:00 +3°C° 0.5 mm 3 mps 635 mmHg 97%
    07:00 +3°C° 0.4 mm 3 mps 636 mmHg 96%
    08:00 +4°C° 0.4 mm 3 mps 636 mmHg 96%
    09:00 +4°C° 0.4 mm 3 mps 636 mmHg 96%
    10:00 +5°C° 0.2 mm 3 mps 636 mmHg 96%
    11:00 +5°C° 0.2 mm 3 mps 636 mmHg 95%
    12:00 +5°C° 0.2 mm 3 mps 636 mmHg 95%
    13:00 +5°C° 0.1 mm 3 mps 636 mmHg 94%
    14:00 +6°C° 0.1 mm 2 mps 635 mmHg 93%
    15:00 +7°C° 0.1 mm 2 mps 635 mmHg 91%
    16:00 +6°C° 0 mm 2 mps 635 mmHg 92%
    17:00 +5°C° 0 mm 2 mps 635 mmHg 93%
    18:00 +5°C° 0 mm 2 mps 635 mmHg 94%
    19:00 +5°C° 0.1 mm 2 mps 635 mmHg 94%
    20:00 +4°C° 0.1 mm 2 mps 635 mmHg 94%
    21:00 +4°C° 0.1 mm 2 mps 636 mmHg 94%
    22:00 +4°C° 0 mm 2 mps 636 mmHg 94%
    23:00 +3°C° 0 mm 2 mps 635 mmHg 94%

    4 April, Saturday

    Time Temperature Precipitation Wind Pressure Humidity
    00:00 +3°C° 0 mm 2 mps 635 mmHg 93%
    01:00 +3°C° 0 mm 2 mps 635 mmHg 93%
    02:00 +4°C° 0 mm 1 mps 635 mmHg 93%
    03:00 +4°C° 0 mm 1 mps 635 mmHg 92%
    04:00 +4°C° 0 mm 1 mps 635 mmHg 91%
    05:00 +4°C° 0 mm 1 mps 635 mmHg 89%
    06:00 +4°C° 0 mm 1 mps 635 mmHg 88%
    07:00 +5°C° 0.7 mm 1 mps 636 mmHg 89%
    08:00 +6°C° 0.7 mm 1 mps 636 mmHg 91%
    09:00 +7°C° 0.7 mm 1 mps 637 mmHg 92%
    10:00 +6°C° 1.6 mm 2 mps 637 mmHg 94%
    11:00 +6°C° 1.6 mm 2 mps 637 mmHg 96%
    12:00 +6°C° 1.6 mm 2 mps 637 mmHg 97%
    13:00 +6°C° 0.4 mm 2 mps 637 mmHg 97%
    14:00 +6°C° 0.4 mm 2 mps 637 mmHg 96%
    15:00 +7°C° 0.4 mm 2 mps 637 mmHg 95%
    16:00 +6°C° 0.3 mm 2 mps 637 mmHg 95%
    17:00 +5°C° 0.3 mm 2 mps 637 mmHg 94%
    18:00 +6°C° 0.3 mm 1 mps 637 mmHg 94%
    19:00 +5°C° 0 mm 1 mps 637 mmHg 92%
    20:00 +4°C° 0 mm 1 mps 637 mmHg 91%
    21:00 +3°C° 0 mm 1 mps 638 mmHg 89%
    22:00 +3°C° 0.1 mm 1 mps 638 mmHg 90%
    23:00 +2°C° 0.1 mm 1 mps 638 mmHg 90%

    5 April, Sunday

    Time Temperature Precipitation Wind Pressure Humidity
    00:00 +1°C° 0.1 mm 2 mps 638 mmHg 90%
    01:00 +1°C° 0.1 mm 2 mps 638 mmHg 90%
    02:00 +1°C° 0.1 mm 2 mps 638 mmHg 90%
    03:00 +1°C° 0.1 mm 2 mps 638 mmHg 90%
    04:00 0°C° 0 mm 3 mps 638 mmHg 89%
    05:00 0°C° 0 mm 3 mps 639 mmHg 89%
    06:00 -1°C° 0 mm 3 mps 639 mmHg 89%
    07:00 +1°C° 0 mm 3 mps 640 mmHg 87%
    08:00 +3°C° 0 mm 2 mps 640 mmHg 85%
    09:00 +5°C° 0 mm 2 mps 641 mmHg 83%
    10:00 +5°C° 0.1 mm 2 mps 641 mmHg 84%
    11:00 +6°C° 0.1 mm 2 mps 641 mmHg 85%
    12:00 +6°C° 0.1 mm 2 mps 641 mmHg 87%
    13:00 +6°C° 0.4 mm 2 mps 641 mmHg 88%
    14:00 +7°C° 0.4 mm 1 mps 641 mmHg 89%
    15:00 +7°C° 0.4 mm 1 mps 641 mmHg 90%
    16:00 +6°C° 0.4 mm 2 mps 641 mmHg 92%
    17:00 +5°C° 0.4 mm 2 mps 641 mmHg 93%
    18:00 +4°C° 0.4 mm 2 mps 641 mmHg 94%
    19:00 +4°C° 0.2 mm 2 mps 641 mmHg 94%
    20:00 +3°C° 0.2 mm 2 mps 641 mmHg 95%
    21:00 +3°C° 0.2 mm 2 mps 642 mmHg 95%
    22:00 +3°C° 0.2 mm 2 mps 642 mmHg 96%
    23:00 +2°C° 0.2 mm 2 mps 642 mmHg 97%
    Show more